カタログに戻る

SL-3 R/B

運用中PO
NORAD 13819·ROCKET BODY·🇷🇺 Russia

打ち上げ Feb 16, 1983 から Plesetsk Cosmodrome

Loading…

次のパス (今後24時間)

TLE

最新Source: Space-Track

元期: Sep 14, 2026, 18:36 UTC

1 13819U 83010B   26257.77553813  .00014175  00000-0  23926-3 0  9998
2 13819  81.1002 129.4573 0015537 100.3075 259.9925 15.51358163387214

AllMySatでSL-3 R/Bをリアルタイム追跡

Download on the App Store